Location: Jelenia Góra
(50.8952°N, 15.7353°E)
Time: 23:09:51
(UTC+01:00)

ISS - Visible Passes

Search period start: 23 January 2019 00:00
Search period end: 02 February 2019 00:00
Orbit: 404 x 410 km, 51.6° (Epoch: 24 January)

Date Brightness Start Highest point End Pass type
(mag) Time Alt. Az. Time Alt. Az. Time Alt. Az.
23 Jan -1.7 18:39:36 10° SSW 18:41:05 18° S 18:41:05 18° S visible
24 Jan -1.6 17:49:14 10° S 17:51:03 14° SE 17:52:04 13° ESE visible
24 Jan -1.2 19:23:49 10° SW 19:24:47 18° SW 19:24:47 18° SW visible
25 Jan -3.0 18:32:40 10° SW 18:35:41 38° SSE 18:35:41 38° SSE visible
26 Jan -2.4 17:41:43 10° SSW 17:44:30 26° SSE 17:46:30 15° E visible
26 Jan -1.9 19:17:28 10° WSW 19:19:14 29° WSW 19:19:14 29° WSW visible
27 Jan -3.7 18:26:07 10° WSW 18:29:24 63° SSE 18:30:00 50° ESE visible
27 Jan -0.2 20:02:38 10° W 20:02:43 10° W 20:02:43 10° W visible
28 Jan -3.2 17:34:53 10° SW 17:38:03 45° SSE 17:40:43 14° E visible
28 Jan -2.4 19:11:12 10° W 19:13:26 39° W 19:13:26 39° W visible
29 Jan -3.9 18:19:45 10° WSW 18:23:04 90° S 18:24:07 41° ENE visible
29 Jan -0.5 19:56:22 10° W 19:56:50 13° W 19:56:50 13° W visible
30 Jan -3.7 17:28:21 10° WSW 17:31:39 72° SSE 17:34:47 11° ENE visible
30 Jan -3.0 19:04:55 10° W 19:07:30 50° WNW 19:07:30 50° WNW visible
31 Jan -3.8 18:13:26 10° W 18:16:45 77° N 18:18:09 32° ENE visible
31 Jan -0.8 19:50:01 10° WNW 19:50:51 16° W 19:50:51 16° W visible
01 Feb -3.8 17:21:57 10° W 17:25:15 85° NNW 17:28:35 10° E visible
01 Feb -3.6 18:58:34 10° W 19:01:32 69° WNW 19:01:32 69° WNW visible
